METEOR 2-11 DEB, 40707

Orbit data source: Space-Track

METEOR 2-11 DEB, 40707 is space debris in LEO originally from a launch on Thu, 05 Jul 1984 UTC launched from the Plesetsk Missile And Space Complex (PKMTR). Debris objects in space refer to the collection of defunct objects orbiting the Earth. Examples of debris include non-operational satellites, rocket bodies, and fragments generated from explosions, collisions, or faulty payload assembly.

Loading next visibility...
Identifier
40707, 1984-072J
Orbit
LEO
Country
Flag of CISCIS
Related business
Manufacturer
Unknown
Mission
Spacecraft
Bus & Motor
Unknown
Mass
Unknown
Launch date (UTC)
1984-07-05 (41 years ago)
Launch vehicle
Unknown
Launch site
Plesetsk Missile And Space Complex (PKMTR)
Object type
Payload
Rocket body
Debris
Shape & HBR
Unknown
Radar Cross Section
Small (<0.1 m²)

Expand to show TLE details & history
Last TLE update: 4 days ago

TLE from 4 days ago
0 METEOR 2-11 DEB
1 40707U 84072J   25257.22124396  .00001148  00000-0  81781-3 0  9991
2 40707  82.5198 231.0246 0016797  86.6143 273.6945 13.96584289 65641
Epoch: 2025-09-14T05:18Z
TLE epoch observation values (Epoch: 2025-09-14T05:18:35.478Z)
Latitude
-0.00002°
Longitude
157.93341°
Altitude
907.798 km
Speed
7.398 km/s
True Right ascension
15h 24m 05s
True Declination
0° 00' 00"
Sunlit
Object was in daylight at epoch
Visualization orbit readout
Latitude
Unknown
Longitude
Unknown
Altitude
Unknown
Speed
Unknown
Apparent Right ascension
Unknown
Apparent Declination
Unknown
Sunlit
N/A
Visualization observer readout
Local Sidereal Time
03:24:30
Azimuth
Unknown
Elevation
Unknown
Doppler factor
Unknown
Orbital elements
Apogee altitude
915.013 km
Perigee altitude
890.553 km
Semi-major axis
7,280.92 km
Eccentricity
0.00168
Inclination
82.5198°
RAAN
231.0246°
Arg. of periapsis
86.6143°
True anomaly
273.50239°
Mean anomaly
273.6945°
Eccentric anomaly
273.59845°
Mean motion
3.49352 °/min
Orbital period
103.05 mins
BSTAR
0.00081781
Loading maneuver chart data...
Computing Atmospheric mass density...
Loading historical data...
Loading historical data...
Loading historical data...
Loading historical data...
Loading historical data...
Loading historical data...
Loading historical data...

Documentation

Showing up to 5 results
|